Location: Asheville, NC
(35.6000°N, 82.5500°W)
Time: 22:15:27
(UTC-04:00)

Hubble Space Telescope - Pass Details

Date: 05 January 2018
Orbit: 537 x 541 km, 28.5° (Epoch: 20 July)

Event Time Altitude Azimuth Distance (km) Brightness Sun altitude
Exits shadow 05:01:06 17° 136° (SE) 1,403 3.4 -31.6°
Drops below altitude 10° 05:02:37 10° 117° (ESE) 1,782 4.2 -31.3°
Sets 05:05:18 0° 101° (E) 2,673 5.5 -30.8°
